COSMOS 2251 DEB, 36060

Orbit data source: Space-Track

COSMOS 2251 DEB, 36060 is space debris in LEO originally from a launch on Wed, 16 Jun 1993 UTC launched from the Plesetsk Missile And Space Complex (PKMTR). The debris from Iridium 33, an American commercial communications satellite, has been tracked extensively since its accidental collision with the defunct Russian satellite Cosmos 2251 in 2009. This event, occurring at high speed in low Earth orbit (LEO), generated thousands of pieces of space debris, significantly increasing the risk of further collisions. The Iridium 33 debris cloud has impacted space traffic management and orbital debris mitigation strategies, making it a subject of ongoing study in space situational awareness.

Loading next visibility...
Identifier
36060, 1993-036AXX
Orbit
LEO
Country
Flag of CISCIS
Related business
Manufacturer
Unknown
Mission
Spacecraft
Bus & Motor
Unknown
Mass
Unknown
Launch date (UTC)
1993-06-16 (33 years ago)
Launch vehicle
Unknown
Launch site
Plesetsk Missile And Space Complex (PKMTR)
Object type
Payload
Rocket body
Debris
Shape & HBR
Unknown shape, 0.1 m
Radar Cross Section
Small (<0.1 m²)

Expand to show TLE details & history
Last TLE update: 3 days ago

TLE from 3 days ago
0 COSMOS 2251 DEB
1 36060U 93036AXX 26117.32562549  .00000891  00000-0  27740-3 0  9990
2 36060  74.0300 343.0560 0014364  51.9412 308.3037 14.42325310869644
Epoch: 2026-04-27T07:48Z
TLE epoch observation values (Epoch: 2026-04-27T07:48:54.042Z)
Latitude
-0.00008°
Longitude
10.5139°
Altitude
747.105 km
Speed
7.485 km/s
True Right ascension
22h 52m 13s
True Declination
0° 00' 00"
Sunlit
Object was in daylight at epoch
Visualization orbit readout
Latitude
Unknown
Longitude
Unknown
Altitude
Unknown
Speed
Unknown
Apparent Right ascension
Unknown
Apparent Declination
Unknown
Sunlit
N/A
Visualization observer readout
Local Sidereal Time
22:28:27
Azimuth
Unknown
Elevation
Unknown
Doppler factor
Unknown
Orbital elements
Apogee altitude
758.68 km
Perigee altitude
738.207 km
Semi-major axis
7,126.58 km
Eccentricity
0.00144
Inclination
74.03°
RAAN
343.056°
Arg. of periapsis
51.9412°
True anomaly
308.17439°
Mean anomaly
308.3037°
Eccentric anomaly
308.23906°
Mean motion
3.60762 °/min
Orbital period
99.79 mins
BSTAR
0.0002774
Loading maneuver chart data...
Computing Atmospheric mass density...

Documentation

Showing up to 5 results
|